sat.trackr.live / text

‹ back to catalog

STARLINK-35386

NORAD 65862 · 2025-223J

PAYLOAD ACTIVE UNKNOWN

§ Identity

Operator
Country
US
Launch date
2025-10-03
Launch site
AFWTR
Launch vehicle
Mass (kg)
RCS (m²)

Purposes: comms

External: N2YO · Heavens-Above · Gunter

§ Orbital elements

Epoch: 2026-05-25T04:00:03.998880Z

Period
93.85 min
Inclination
53.1585°
Eccentricity
0.0001390
Mean motion
15.34386017 rev/d
Perigee alt
461.8 km
Apogee alt
463.7 km
Semi-major
6,840.9 km
B*
3.1075e-5
RAAN
299.1805°
Arg perigee
89.0127°
Mean anomaly
188.9348°
Rev number
585

§ Raw data

STARLINK-353861 65862U 25223J   26145.16671295  .00000673  00000+0  31075-4 0  99912 65862  53.1585 299.1805 0001390  89.0127 188.9348 15.34386017  5857

JSON: /api/v1/satellites/65862 · /tle

For live sub-satellite position, see the globe view (requires WebGL).

§ Visibility from observer

Set your observer location to see the next 7 days of passes ≥ 10°. The values pass through the URL so the page stays shareable.

No JS? Fill the form by hand. The geolocation button needs JavaScript.